TimeCST,TemperatureF,Dew PointF,Humidity,Sea Level PressureIn,VisibilityMPH,Wind Direction,Wind SpeedMPH,Gust SpeedMPH,PrecipitationIn,Events,Conditions,WindDirDegrees,DateUTC
12:47 AM,17.6,10.4,73,29.95,10.0,NNW,8.1,-,N/A,,Scattered Clouds,340,2012-12-28 06:47:00
12:52 AM,16.0,10.9,81,30.04,10.0,NNW,9.2,-,N/A,,Partly Cloudy,340,2012-12-28 06:52:00
1:52 AM,14.0,9.0,80,30.04,10.0,NNW,9.2,-,N/A,,Clear,330,2012-12-28 07:52:00
2:52 AM,15.1,9.0,77,30.06,10.0,NNW,12.7,-,N/A,,Overcast,330,2012-12-28 08:52:00
3:52 AM,14.0,8.1,77,30.07,10.0,NW,10.4,-,N/A,,Overcast,320,2012-12-28 09:52:00
4:52 AM,14.0,8.1,77,30.08,10.0,NNW,10.4,-,N/A,,Overcast,330,2012-12-28 10:52:00
5:52 AM,14.0,8.1,77,30.07,10.0,NNW,11.5,-,N/A,,Overcast,330,2012-12-28 11:52:00
6:52 AM,10.0,5.0,80,30.09,10.0,NNW,12.7,-,N/A,,Clear,330,2012-12-28 12:52:00
7:52 AM,8.6,3.2,79,29.98,10.0,NNW,10.4,-,N/A,,Clear,330,2012-12-28 13:52:00
8:52 AM,10.0,3.9,76,30.11,10.0,NNW,10.4,-,N/A,,Clear,330,2012-12-28 14:52:00
9:52 AM,16.0,6.1,65,30.12,10.0,NNW,13.8,-,N/A,,Clear,330,2012-12-28 15:52:00
10:52 AM,19.0,7.0,59,30.14,10.0,NNW,17.3,24.2,N/A,,Clear,340,2012-12-28 16:52:00
11:52 AM,21.0,7.0,55,30.13,10.0,NNW,15.0,24.2,N/A,,Clear,340,2012-12-28 17:52:00
12:52 PM,24.1,8.1,51,30.11,10.0,NNW,15.0,-,N/A,,Clear,330,2012-12-28 18:52:00
1:52 PM,25.0,7.0,46,30.09,10.0,NNW,12.7,23.0,N/A,,Clear,330,2012-12-28 19:52:00
2:52 PM,27.0,8.1,45,30.09,10.0,NNW,13.8,21.9,N/A,,Clear,330,2012-12-28 20:52:00
3:52 PM,27.0,8.1,45,30.09,10.0,NNW,12.7,20.7,N/A,,Clear,330,2012-12-28 21:52:00
4:52 PM,25.0,9.0,51,30.12,10.0,NNW,10.4,-,N/A,,Clear,330,2012-12-28 22:52:00
5:52 PM,19.0,8.1,62,30.15,10.0,NNW,3.5,-,N/A,,Clear,340,2012-12-28 23:52:00
6:52 PM,15.1,7.0,70,30.18,10.0,North,6.9,-,N/A,,Clear,360,2012-12-29 00:52:00
7:52 PM,12.9,6.1,74,30.20,10.0,North,6.9,-,N/A,,Clear,350,2012-12-29 01:52:00
8:52 PM,12.0,6.1,77,30.22,10.0,WNW,8.1,-,N/A,,Clear,290,2012-12-29 02:52:00
9:52 PM,10.9,6.1,81,30.22,10.0,WNW,6.9,-,N/A,,Clear,300,2012-12-29 03:52:00
10:52 PM,12.9,8.1,81,30.22,10.0,WNW,9.2,-,N/A,,Clear,290,2012-12-29 04:52:00
11:52 PM,18.0,10.9,74,30.23,10.0,WNW,10.4,-,N/A,,Clear,290,2012-12-29 05:52:00